User: anonymous   Login
Location: Unspecified
(17.6330°N, 0.0000°E)
Time: 08:26:15
(UTC+00:00)
Language:

KKS-1 - Orbit

View from above orbital plane
View from above orbital plane
View from above satellite
View from above satellite

Ground track
Ground track

The orbit data is extracted from the following two-line orbital elements,

1 33499U 09002H   19204.87168293 +.00000019 +00000-0 +10905-4 0  9998
2 33499 098.3487 044.6973 0010516 093.9711 266.2699 14.75449715563983
Epoch (UTC): 23 July 2019 20:55:13
Eccentricity: 0.0010516
inclination: 98.3487°
perigee height: 636 km
apogee height: 651 km
right ascension of ascending node: 44.6973°
argument of perigee: 93.9711°
revolutions per day: 14.75449715
mean anomaly at epoch: 266.2699°
orbit number at epoch: 56398

The dashed part of the orbit path shows where the satellite is in the earth's shadow,  

DLR